Regional Weather Roundup
Issued by NWS

Home | Current Version | Previous Version | Text Only | Print | Product List | Glossary Off
Versions: 1 2 3 4 5 6 7 8 9 10 11 12 13 14 15 16 17 18 19 20 21 22 23 24 25 26 27 28 29 30 31 32 33 34 35 36 37 38 39 40 41 42 43 44 45 46 47 48 49 50

000
ASUS45 KCYS 291810
RWRWY

WYOMING REGIONAL WEATHER ROUNDUP
NATIONAL WEATHER SERVICE CHEYENNE WY
1200 PM MDT MON JUN 29 2015

NOTE:  "FAIR" INDICATES FEW OR NO CLOUDS BELOW 12,000 FEET
WITH NO SIGNIFICANT WEATHER AND/OR OBSTRUCTIONS TO VISIBILITY.

WYZ001-291900-
YELLOWSTONE NATIONAL PARK

CITY           SKY/WX    TMP DP  RH WIND       PRES   REMARKS
LK YELLOWSTONE   N/A     72  41  32 E5        30.45S
6HR MIN TEMP:  45; 6HR MAX TEMP:  76;

W YELLOWSTONE  NOT AVBL

$$
WYZ002>013-054>058-071-098>099-291900-
NORTHERN WYOMING

CITY           SKY/WX    TMP DP  RH WIND       PRES   REMARKS
JACKSON        FAIR      77  48  36 S5        30.33F
CODY           FAIR      88  45  22 CALM      30.22S
GREYBULL       FAIR      91  50  24 VRB5      30.13F
6HR MIN TEMP:  63; 6HR MAX TEMP:  91;

WORLAND        FAIR      86  51  29 W5        30.16F
6HR MIN TEMP:  57; 6HR MAX TEMP:  86;

SHERIDAN       FAIR      89  54  30 W6        30.15F
6HR MIN TEMP:  62; 6HR MAX TEMP:  89;

BUFFALO        FAIR      86  46  24 N12       30.23S
6HR MIN TEMP:  67; 6HR MAX TEMP:  86;

GILLETTE       FAIR      85  57  38 CALM      30.16F
6HR MIN TEMP:  64; 6HR MAX TEMP:  86;

HULETT         FAIR      81  55  41 W7        30.18S
NEWCASTLE      FAIR      81  46  30 MISG      30.18F

$$
WYZ014>020-022>026-101>103-291900-
CENTRAL WYOMING

CITY           SKY/WX    TMP DP  RH WIND       PRES   REMARKS
BIG PINEY      FAIR      79  44  28 VRB6      30.39S
6HR MIN TEMP:  49; 6HR MAX TEMP:  80;

PINEDALE       FAIR      79  41  25 W7        30.39S
DUBOIS         FAIR      79  41  25 SE12G17   30.38F
LANDER         FAIR      84  49  29 N5        30.26F
6HR MIN TEMP:  58; 6HR MAX TEMP:  85;

RIVERTON       FAIR      83  48  29 VRB3      30.27F
6HR MIN TEMP:  62; 6HR MAX TEMP:  84;

CASPER         FAIR      88  44  21 NW7       30.25S
6HR MIN TEMP:  55; 6HR MAX TEMP:  88;

DOUGLAS        FAIR      85  50  29 VRB7      30.22F
6HR MIN TEMP:  56; 6HR MAX TEMP:  86;


$$
WYZ021-027>030-104>119-291900-
SOUTHERN WYOMING

CITY           SKY/WX    TMP DP  RH WIND       PRES   REMARKS
EVANSTON       FAIR      82  43  25 E10G16    30.36F
6HR MIN TEMP:  60; 6HR MAX TEMP:  82;

KEMMERER       FAIR      82  41  23 SE12G18   30.40S
FORT BRIDGER   CLEAR     84  41  21 SE6G18    30.39S
ROCK SPRINGS   FAIR      83  44  25 NE9       30.35S
6HR MIN TEMP:  59; 6HR MAX TEMP:  83;

DIXON          FAIR      85  40  20 N8        30.33S
RAWLINS        FAIR      80  44  27 VRB5      30.36S
6HR MIN TEMP:  52; 6HR MAX TEMP:  81;

SARATOGA       FAIR      79  45  29 NE3       30.38S
LARAMIE        FAIR      78  45  30 N6        30.38S
6HR MIN TEMP:  50; 6HR MAX TEMP:  78;

CHEYENNE       FAIR      79  53  40 VRB7      30.30S
6HR MIN TEMP:  59; 6HR MAX TEMP:  80;

TORRINGTON     FAIR      82  56  40 S7        30.17F
6HR MIN TEMP:  60; 6HR MAX TEMP:  83;

PINE BLUFFS    FAIR      79  50  36 E3        30.26S

$$


USA.gov is the U.S. government's official web portal to all federal, state and local government web resources and services.